Tracking 34352 objects as of 8-Jun-2026
HD Live streaming from Space Station
objects crossing your sky now

SL-12 DEB

Track SL-12 DEB now!
10-day predictions


NORAD ID: 24833
Int'l Code: 1997-028F
Perigee: 1,205.5 km
Apogee: 3,062.9 km
Inclination: 63.3 °
Period: 130.1 minutes
Semi major axis: 8505 km
RCS: 0.8365 m2 (medium)
Launch date: June 6, 1997
Source: Commonwealth of Independent States (former USSR) (CIS)
Launch site: TYURATAM MISSILE AND SPACE COMPLEX (TTMTR)

Note: This is SATELLITE DEBRIS
Your satellite tracking list
Your tracking list is empty




NASA's NSSDC Master Catalog

Two Line Element Set (TLE):
1 24833U 97028F   26159.51984500 -.00000347  00000-0 -32713-2 0  9995
2 24833  63.3179 287.0492 1091910  48.8195  21.9923 11.06824554172056
Source of the keplerian elements: AFSPC